Weather History for KMHK - December, 2012

Change the Weather History Date:

Tuesday, December 25, 2012

  Actual Average Record
Temperature  
Mean Temperature 16 °F 28 °F  
Max Temperature 20 °F 40 °F 59 °F (1999)
Min Temperature 11 °F 17 °F 5 °F (2001)
Degree Days  
Heating Degree Days 49 37  
Month to date heating degree days 721 845  
Since 1 July heating degree days 1679 1920  
Cooling Degree Days 0 0  
Month to date cooling degree days 0 0  
Year to date cooling degree days 1788 1362  
Moisture  
Dew Point 8 °F    
Average Humidity 63    
Maximum Humidity 74    
Minimum Humidity 51    
Precipitation  
Precipitation 0.00 in 0.04 in 0.01 in (1997)
Month to date precipitation 0.25 0.87  
Year to date precipitation 21.71 32.40  
Sea Level Pressure  
Sea Level Pressure 30.33 in    
Wind  
Wind Speed 13 mph (NNE)    
Max Wind Speed 23 mph    
Max Gust Speed 32 mph    
Visibility 10 miles    
Events      
T = Trace of Precipitation, MM = Missing Value Source: NWS Daily Summary

Daily Weather History Graph

Daily Weather History Graph

Search for Another Location

Airport or City:

Trip Planner

Search our weather history database for the weather conditions in past years. The results will help you decide how hot, cold, wet, or windy it might be!

Date:

Astronomy

Dec. 25, 2012 Rise Set
Actual Time 7:44 AM CST 5:09 PM CST
Civil Twilight 7:14 AM CST 5:40 PM CST
Nautical Twilight 6:40 AM CST 6:13 PM CST
Astronomical Twilight 6:08 AM CST 6:46 PM CST
Moon 3:18 PM CST (12/25) 5:18 AM CST (12/25)
Length of Visible Light 10h 25m
Length of Day
9h 25m
Waxing Gibbous, 94% of the Moon is Illuminated
Dec 25
Waxing Gibbous
Dec 28
Full
Jan 4
Last Quarter
Jan 11
New
Jan 18
First Quarter

Hourly Weather History & Observations

Time (CST) Temp. Windchill Dew Point Humidity Pressure Visibility Wind Dir Wind Speed Gust Speed Precip Events Conditions
12:52 AM 19.0 °F 5.6 °F 12.0 °F 74% 30.20 in 10.0 mi NE 13.8 mph - N/A   Clear
1:52 AM 19.9 °F 9.3 °F 12.0 °F 71% 30.22 in 10.0 mi NNE 9.2 mph - N/A   Clear
2:52 AM 19.0 °F 6.1 °F 12.0 °F 74% 30.24 in 10.0 mi NE 12.7 mph - N/A   Clear
3:52 AM 19.0 °F 5.0 °F 12.0 °F 74% 30.26 in 10.0 mi NE 15.0 mph 19.6 mph N/A   Clear
4:41 AM 19.4 °F 6.6 °F 12.2 °F 74% 30.20 in 10.0 mi NNE 12.7 mph - N/A   Mostly Cloudy
4:52 AM 19.0 °F 6.8 °F 10.9 °F 71% 30.26 in 10.0 mi NNE 11.5 mph - N/A   Mostly Cloudy
5:52 AM 19.0 °F 5.0 °F 10.9 °F 71% 30.27 in 10.0 mi NNE 15.0 mph - N/A   Overcast
6:52 AM 18.0 °F 4.2 °F 10.0 °F 71% 30.30 in 10.0 mi NNE 13.8 mph 21.9 mph N/A   Overcast
7:20 AM 17.6 °F 4.3 °F 8.6 °F 68% 30.27 in 10.0 mi North 12.7 mph 20.7 mph N/A   Overcast
7:52 AM 16.0 °F 0.6 °F 7.0 °F 68% 30.35 in 10.0 mi NNE 16.1 mph - N/A   Overcast
8:52 AM 15.1 °F -0.1 °F 6.1 °F 68% 30.38 in 10.0 mi NNE 15.0 mph 23.0 mph N/A   Overcast
9:52 AM 16.0 °F 0.6 °F 7.0 °F 68% 30.38 in 10.0 mi NNE 16.1 mph 28.8 mph N/A   Partly Cloudy
10:52 AM 16.0 °F -0.4 °F 7.0 °F 68% 30.37 in 10.0 mi NNE 18.4 mph 26.5 mph N/A   Scattered Clouds
11:52 AM 18.0 °F 2.6 °F 6.1 °F 60% 30.32 in 10.0 mi NNE 17.3 mph 32.2 mph N/A   Overcast
12:52 PM 18.0 °F 3.6 °F 6.1 °F 60% 30.35 in 10.0 mi NNE 15.0 mph 23.0 mph N/A   Overcast
1:52 PM 19.4 °F 5.5 °F 5.0 °F 54% 30.30 in 10.0 mi NNE 15.0 mph - N/A   Overcast
2:52 PM 19.9 °F 6.7 °F 6.1 °F 55% 30.36 in 10.0 mi NNE 13.8 mph 19.6 mph N/A   Overcast
3:52 PM 19.9 °F 6.7 °F 6.1 °F 55% 30.37 in 10.0 mi NNE 13.8 mph 20.7 mph N/A   Overcast
4:52 PM 19.0 °F 6.8 °F 7.0 °F 59% 30.38 in 10.0 mi NNE 11.5 mph 18.4 mph N/A   Overcast
5:52 PM 18.0 °F 5.4 °F 7.0 °F 62% 30.40 in 10.0 mi NNE 11.5 mph - N/A   Overcast
6:52 PM 16.0 °F 5.3 °F 6.1 °F 65% 30.40 in 10.0 mi North 8.1 mph - N/A   Scattered Clouds
7:52 PM 15.1 °F 2.5 °F 6.1 °F 68% 30.39 in 10.0 mi NNE 10.4 mph - N/A   Mostly Cloudy
8:52 PM 14.0 °F 2.9 °F 6.1 °F 71% 30.39 in 10.0 mi North 8.1 mph - N/A   Clear
9:52 PM 12.9 °F 2.6 °F 5.0 °F 71% 30.37 in 10.0 mi North 6.9 mph - N/A   Clear
10:52 PM 12.0 °F 1.5 °F 5.0 °F 73% 30.38 in 10.0 mi North 6.9 mph - N/A   Clear
11:52 PM 10.9 °F 0.2 °F 5.0 °F 77% 30.38 in 10.0 mi North 6.9 mph - N/A   Clear